Weather in Sladkovo

Russia / Tyumen Oblast     55°31′52″N   70°20′47″E
temp.,
°C
wind,
m/s
gust,
m/s
humid.,
%
clouds,
%
prec.,
mm/h
press.,
hPa
HPBL,
m
23 january, sat
sat2323:00−26nnw239892 0.1 102324
02:00−29nnw229886 0.0 102419
05:00−31nnw339884 0.1 102744
08:00−34nnw349745 0.0 103040
11:00−33nnw359623 0.0 1032156
14:00−31nnw359333 0.0 1034263
17:00−35nw349654 0.0 103633
20:00−37nw339617 0.0 103826
24 january, sun
sun2423:00−37nw229643 0.0 103820
02:00−35wnw2295100 0.0 103977
05:00−35wnw2294100 0.0 103932
08:00−34w1193100 0.0 104019
11:00−32ssw119099 0.0 1041147
14:00−30sse118933 0.0 1041200
17:00−34ese229417 0.0 104219
20:00−35ese23940 0.0 104319
25 january, mon
mon2523:00−34se339420 0.0 104349
02:00−32ese3594100 0.0 1043130
05:00−31se4793100 0.0 1042195
08:00−30ese5793100 0.0 1042228
11:00−28ese5997100 0.1 1041253
14:00−26ese5896100 0.1 1040260
17:00−28ese4897100 0.2 1040227
20:00−29ese5997100 0.0 1040226
26 january, tue
tue2623:00−30ese4997100 0.1 1040212
02:00−30ese4898100 0.0 1039197
05:00−29ese4798100 0.1 1040185
08:00−28ese4797100 0.0 1040226
11:00−26se4697100 0.2 1040238
14:00−24se4696100 0.1 1040255
17:00−25se4797100 0.1 1040193
20:00−25se489797 0.0 1040217
27 january, wed
wed2723:00−24sse579899 0.2 1039232
02:00−22sse4798100 0.4 1038228
05:00−20sse4798100 0.6 1036212
08:00−17s5797100 0.4 1034195
11:00−11s5895100 1.3 1032249
14:00−3sw61096100 1.0 1031622
17:00−5sw61193100 1.4 1030495
20:00−9wsw5109390 0.0 1029266